STARLINK-5141, 55500

Orbit data source: Space-Track

STARLINK-5141, 55500 is a payload satellite owned by SpaceX/Seattle (US) in LEO that was launched on Thu, 02 Feb 2023 UTC via an FALCON 9 launch vehicle from the Air Force Eastern Test Range (AFETR). Payload-class satellites include a variety of spacecraft equipped with specific instruments for various scientific and technological missions. These include communications satellites like Starlink; space stations such as the ISS; scientific satellites like the Hubble; Earth observation satellites from companies like Planet Labs, Umbra, and HawkEye 360; GPS; miniature CubeSats for education and research; and military/defense satellites.

Loading next visibility...
Identifier
55500, 2023-015BD
Orbit
LEO
Country
Flag of USUS
Related business
Manufacturer
SpaceX/Seattle
Mission
Operational Commercial Communications
Bus & Motor
STARLINK, Unknown motor
Mass
305 kg wet, ~290 kg dry
Launch date (UTC)
2023-02-02 (3 years ago)
Launch vehicle
FALCON 9
Launch site
Air Force Eastern Test Range (AFETR)
Object type
Payload
Rocket body
Debris
Shape & HBR
Box + 1 Pan, 10.1 m
Radar Cross Section
13.562 m², Large (>1 m²)

Expand to show TLE details & history
Last TLE update: 12 hours ago

TLE from 12 hours ago
0 STARLINK-5141
1 55500U 23015BD  26035.48719174  .00000311  00000-0  38117-4 0  9992
2 55500  43.0026 159.0298 0001864 274.8535  85.2095 15.02538041165616
Epoch: 2026-02-04T11:41Z
TLE epoch observation values (Epoch: 2026-02-04T11:41:33.366Z)
Latitude
0.00002°
Longitude
-151.01227°
Altitude
558.744 km
Speed
7.584 km/s
True Right ascension
10h 36m 07s
True Declination
0° 00' 00"
Sunlit
Object was in full shadow at epoch
Visualization orbit readout
Latitude
Unknown
Longitude
Unknown
Altitude
Unknown
Speed
Unknown
Apparent Right ascension
Unknown
Apparent Declination
Unknown
Sunlit
N/A
Visualization observer readout
Local Sidereal Time
01:42:27
Azimuth
Unknown
Elevation
Unknown
Doppler factor
Unknown
Orbital elements
Apogee altitude
562.29 km
Perigee altitude
559.703 km
Semi-major axis
6,939.134 km
Eccentricity
0.00019
Inclination
43.0026°
RAAN
159.0298°
Arg. of periapsis
274.8535°
True anomaly
85.23079°
Mean anomaly
85.2095°
Eccentric anomaly
85.22014°
Mean motion
3.75479 °/min
Orbital period
95.88 mins
BSTAR
0.000038117
Loading maneuver chart data...
Computing Atmospheric mass density...
Loading historical data...
Loading historical data...
Loading historical data...
Loading historical data...
Loading historical data...
Loading historical data...
Loading historical data...

Documentation

Showing up to 5 results
|